Location: New Waterford
(40.8451°N, 80.6145°W)
Time: 04:10:57
(UTC+00:00)

Daily predictions for brighter satellites

Satellite Brightness Start Highest point End
(mag) Time Altitude Azimuth Time Altitude Azimuth Time Altitude Azimuth
Cosmos 372 Rocket 4.1 00:01:25 10° S 00:06:29 52° ESE 00:11:34 10° NNE
Cosmos 2263 Rocket 3.0 00:02:32 10° SW 00:07:58 56° WNW 00:13:29 10° NNE
Cosmos 1464 Rocket 4.2 00:03:25 10° SSE 00:09:11 46° E 00:15:02 10° NNE
Cosmos 1025 Rocket 4.0 00:06:58 10° NNE 00:10:46 28° ENE 00:14:34 10° SE
BREEZE-M DEB (TANK) 3.3 00:09:18 10° SSW 00:12:01 48° SE 00:19:02 10° NE
USA 186 3.4 00:11:48 15° E 00:12:42 17° ENE 00:14:51 10° NNE
Cosmos 1782 Rocket 3.9 00:08:46 10° SSW 00:13:09 71° W 00:17:35 10° N
Cosmos 1844 Rocket 3.2 00:09:22 10° SSE 00:14:19 34° ESE 00:19:17 10° NE
Cosmos 1867 3.7 00:10:22 10° NNW 00:15:47 60° NE 00:21:02 11° SE
ISS -2.9 00:15:48 10° WSW 00:19:05 49° NNW 00:22:23 10° NE
Cosmos 2084 Rocket 4.3 00:17:16 10° NW 00:21:37 53° WSW 00:26:02 10° SSE
Cosmos 2151 Rocket 4.1 00:17:55 10° SSE 00:21:58 36° E 00:26:04 10° NNE
Cosmos 1937 Rocket 4.5 00:19:01 10° SW 00:24:07 51° WNW 00:29:13 10° N
USA 234 4.0 00:19:00 10° ENE 00:24:34 29° SE 00:30:04 10° S
SJ-11-01 4.2 00:19:57 10° SSE 00:24:39 77° ENE 00:29:22 10° N
Lacrosse 5 rocket 4.2 00:23:31 10° NNW 00:25:02 12° NNW 00:26:34 10° N
Cosmos 2150 Rocket 4.2 00:21:03 10° S 00:26:10 49° ESE 00:31:24 10° NNE
Cosmos 1943 3.8 00:24:26 10° NNW 00:29:59 59° WSW 00:35:32 10° S
Cosmos 1125 Rocket 4.1 00:25:48 10° SSE 00:30:34 35° E 00:35:21 10° NE
CZ-2C R/B 2.0 00:27:58 10° WSW 00:31:13 31° S 00:32:43 22° SE
Cosmos 1891 Rocket 4.4 00:30:10 10° S 00:36:18 81° E 00:42:23 10° N
CSL-04 Debris 4.4 00:31:28 10° S 00:36:49 71° WSW 00:42:13 10° NNW
Exosat Rocket 4.1 00:33:04 10° S 00:38:28 38° ESE 00:43:06 10° NE
Cosmos 1975 Rocket 3.9 00:35:08 10° NNW 00:39:20 50° W 00:43:29 10° SSW
NOSS 3-4 (A) 4.2 00:35:19 10° SSE 00:40:01 25° ESE 00:42:16 20° ENE
NOSS 3-4 (C) 4.2 00:35:28 10° SSE 00:40:07 25° ESE 00:41:56 22° E
CSL-04 Rocket 4.1 00:38:16 10° S 00:43:37 66° WSW 00:49:06 10° NNW
Meteor 1-15 Rocket 4.3 00:48:10 10° S 00:53:36 55° E 00:59:09 10° NNE
Cosmos 1674 3.3 00:50:42 10° N 00:54:01 36° ENE 00:54:01 36° ENE
Cosmos 1805 4.4 00:57:53 27° NE 00:57:53 27° NE 01:00:07 10° NNE
Abrixas rocket 4.0 00:54:51 10° NW 00:56:54 18° N 00:57:14 17° NNE
Resurs 01 Rocket 3.3 00:59:15 18° NE 00:59:15 18° NE 01:01:27 10° NNE
H-2A R/B 2.7 00:53:45 10° S 00:58:34 54° W 01:03:32 10° NNW
IRS-1A Rocket 4.3 00:55:43 18° SSE 01:00:12 70° ENE 01:06:02 10° N
Cosmos 1048 Rocket 4.0 00:55:29 10° NNW 01:00:47 65° ENE 01:03:09 33° SE
ATLAS 2AS CENTAUR R/B 3.3 00:55:11 10° S 01:02:23 41° ESE 01:09:39 10° NE
Nadezhda 4 Rocket 3.8 00:56:25 10° N 01:02:33 75° E 01:07:55 14° SSE
BREEZE-M TANK 3.4 00:52:27 10° WSW 01:03:17 76° NNW 01:05:14 31° ENE
Cosmos 2034 Rocket 4.0 01:01:13 10° S 01:07:35 87° W 01:13:58 10° N
CENTAUR R/B 3.4 01:02:30 10° NNW 01:10:27 54° NE 01:14:15 34° ESE
Okean 1 Rocket 3.0 01:16:18 64° ESE 01:16:32 66° E 01:20:59 10° NNE
ATLAS 3B R/B 4.0 01:12:54 10° NNW 01:18:17 24° NE 01:20:03 22° ENE
Ariane Rocket 3.0 01:16:43 27° S 01:19:31 79° WSW 01:24:37 10° NNW
KORONAS-FOTON 3.9 01:16:58 10° N 01:20:25 65° NNE 01:20:25 65° NNE
OBJECT-B 3.0 01:23:19 19° N 01:23:19 19° N 01:24:25 10° N
Cosmos 2082 Rocket 4.3 01:21:38 10° NNE 01:23:32 12° NE 01:23:32 12° NE
Cosmos 494 Rocket 3.9 01:21:00 10° NNW 01:26:16 70° ENE 01:26:49 64° ESE
USA 238 DEB 3.8 01:19:01 10° NW 01:26:20 86° NE 01:29:18 41° SE
USA 238 3.8 01:19:08 10° NW 01:26:26 85° NE 01:29:22 41° SE
Meteor 2-5 Rocket 3.7 01:21:40 10° N 01:27:17 61° ENE 01:27:52 58° ESE
ARGOS 4.3 01:22:57 10° SSW 01:27:59 41° W 01:33:02 10° NNW
Resurs 1-3 4.0 01:32:05 52° NNE 01:32:05 52° NNE 01:35:34 10° N
Meteor 1-22 Rocket 4.3 01:32:16 59° E 01:32:18 59° E 01:38:11 10° NNE
SJ-6B 3.3 01:33:14 53° W 01:33:14 53° W 01:36:47 10° NNW
CZ-2C R/B 3.1 01:28:57 10° N 01:34:26 63° WNW 01:39:57 10° SSW
Cosmos 1634 Rocket 3.8 01:37:16 49° SSE 01:38:59 75° E 01:45:10 10° N
COSMOS 2406 4.2 01:33:55 10° N 01:38:13 32° NE 01:38:13 32° NE
USA 186 4.2 01:43:19 21° W 01:43:19 21° W 01:45:45 10° NW
SPOT 3 Rocket 3.5 01:44:55 74° NNE 01:44:55 74° NNE 01:49:43 10° N
Meteor 1-24 Rocket 3.8 01:39:33 10° N 01:44:32 62° NE 01:44:32 62° NE
Cosmos 2285 Rocket 4.4 01:43:16 10° SSW 01:49:29 63° WNW 01:55:49 10° NNE
NOSS 3-2 (A) 4.3 01:45:34 10° NW 01:53:14 65° WSW 01:56:30 40° S
ISS -0.8 01:54:21 10° NW 01:55:46 15° NNW 01:55:46 15° NNW
Cosmos 1844 Rocket 4.2 01:53:07 10° WSW 01:58:08 34° WNW 02:03:12 10° N
Cosmos 1092 Rocket 4.4 01:57:18 10° NNW 02:03:20 59° W 02:05:04 44° SW
Lacrosse 5 rocket 4.3 02:05:01 10° N 02:06:04 11° N 02:06:10 11° N
USA 234 3.3 02:04:41 33° NE 02:07:55 77° NW 02:14:27 10° SW
Cosmos 2026 Rocket 4.1 02:01:40 10° N 02:08:02 74° W 02:08:36 69° SW
Milstar 3 Cent rocket 4.4 02:13:26 10° SW 02:14:14 13° SW 02:14:14 13° SW
Cosmos 2279 Rocket 4.4 02:21:53 54° N 02:21:53 54° N 02:26:39 10° N
Cosmos 1833 Rocket 3.9 02:18:34 10° NNW 02:21:52 34° N 02:21:52 34° N
NOSS 3-2 (C) 4.3 02:21:17 10° NW 02:28:55 61° WSW 02:29:49 58° SW
NOSS 3-4 (A) 4.0 02:24:39 10° SW 02:34:00 24° NNE 02:36:32 10° NNE
NOSS 3-4 (C) 4.0 02:24:45 10° SW 02:34:28 22° NNE 02:36:38 10° NNE
Resurs 01 Rocket 3.9 02:36:49 22° NW 02:36:49 22° NW 02:38:38 10° NNW
ATLAS 2AS CENTAUR R/B 3.7 02:45:35 10° WSW 02:53:17 52° NW 03:00:58 10° NNE
CENTAUR R/B 3.9 02:53:29 10° NW 03:01:14 43° WSW 03:01:27 43° WSW
Cosmos 2082 Rocket 4.2 03:03:23 10° NNW 03:05:22 23° NNW 03:05:22 23° NNW
ATLAS 3B R/B 3.6 03:02:54 10° NW 03:07:18 43° NNW 03:07:18 43° NNW
ADEOS II 4.2 07:26:12 10° NNE 07:28:11 23° NNE 07:28:11 23° NNE
IDEFIX/ARIANE 42P 4.5 07:35:47 10° NE 07:39:15 25° ENE 07:39:15 25° ENE
Lacrosse 5 3.5 08:06:13 30° NNE 08:06:13 30° NNE 08:08:57 10° NE
Cosmos 2278 4.4 08:08:13 51° NE 08:08:13 51° NE 08:12:30 10° NNE
CZ-2D R/B 4.4 08:02:59 10° N 08:04:03 15° NNW 08:04:03 15° NNW
Resurs 1-4 Rocket 4.4 08:09:19 10° NNW 08:10:13 14° NNW 08:10:13 14° NNW
NOSS 3-3 (A) 4.3 08:19:03 54° ESE 08:19:03 54° ESE 08:25:04 10° NE
NOSS 3-3 (C) 4.3 08:19:13 53° ESE 08:19:13 53° ESE 08:25:08 10° NE
USA 267 3.2 08:15:55 10° NE 08:22:24 68° NW 08:22:28 68° NW
Spot 4 Rocket 4.1 08:30:18 10° NNE 08:35:06 72° ENE 08:35:06 72° ENE
SL-8 R/B 4.3 08:39:54 51° NNE 08:39:54 51° NNE 08:44:33 10° E
Cosmos 921 Rocket 3.8 08:43:18 48° NE 08:43:18 48° NE 08:46:32 10° NNE
MSX 3.9 08:39:38 10° NNE 08:45:26 73° ESE 08:47:06 47° S
Cosmos 1812 3.9 08:46:42 42° ENE 08:46:42 42° ENE 08:49:56 10° NNE
Timation 1 Rocket 4.2 08:41:15 10° NNW 08:47:16 80° WSW 08:53:16 10° SSE
Cosmos 1697 Rocket 3.9 08:48:35 29° NW 08:48:35 29° NW 08:52:26 10° N
Cosmos 1500 4.4 08:44:31 10° N 08:47:33 41° NE 08:47:33 41° NE
Cosmos 1980 Rocket 2.5 08:52:46 51° NW 08:52:46 51° NW 08:57:58 10° NNE
USA 234 3.5 08:49:23 10° ESE 08:55:51 67° NE 09:02:20 10° NW
BREEZE-M DEB (TANK) 3.7 08:55:57 41° SW 08:58:42 67° SSE 09:02:32 10° ENE
Cosmos 2322 Rocket 3.3 08:55:32 18° SSE 08:59:25 42° ESE 09:04:45 10° NE
BREEZE-M DEB (TANK) 3.6 09:01:04 42° NNE 09:01:04 42° NNE 09:05:15 10° NE
Cosmos 2263 Rocket 2.5 08:55:50 10° NNW 09:01:29 66° ENE 09:07:07 10° SSE
Celestis-02/Orion 38 4.4 09:02:04 10° SSE 09:07:21 75° WSW 09:12:33 10° NNW
SL-16 R/B 2.5 09:05:31 27° S 09:08:37 63° ESE 09:14:14 10° NNE
SL-4 R/B 2.7 09:08:18 49° S 09:09:01 55° SE 09:13:39 10° ENE
Cosmos 2228 Rocket 3.2 09:09:42 57° NW 09:09:42 57° NW 09:13:35 10° N
FALCON 9 DEB 4.0 09:10:01 46° ESE 09:10:01 46° ESE 09:12:56 10° ENE
ADEOS II 3.9 09:07:06 10° NNW 09:09:07 16° NW 09:09:07 16° NW
Cosmos 1934 Rocket 4.0 09:05:29 10° NNW 09:11:20 52° W 09:12:49 43° SW
ARIANE 5 R/B 3.4 09:08:57 10° N 09:12:41 31° NW 09:12:41 31° NW
Meteor 1-4 Rocket 2.5 09:16:32 77° ENE 09:16:32 77° ENE 09:19:57 10° NNE
COSMOS 2441 4.3 09:12:28 10° N 09:17:21 64° WNW 09:18:29 49° SW
Cosmos 1869 Rocket 3.4 09:15:24 10° N 09:19:45 87° W 09:24:04 10° S
IDEFIX/ARIANE 42P 3.1 09:14:58 10° N 09:19:50 38° WNW 09:20:03 38° WNW
ASTEX 1 4.1 09:15:17 10° NNW 09:19:17 35° WNW 09:19:17 35° WNW
CZ-2C R/B 2.7 09:14:41 10° NNE 09:19:50 70° E 09:24:59 10° S
Cosmos 2227 4.0 09:15:00 10° NNW 09:20:40 82° WSW 09:26:16 10° SSE
Meteor 1-10 Rocket 4.2 09:17:10 23° SSW 09:20:57 82° W 09:26:52 10° N
ERBS 3.2 09:22:46 38° NNW 09:22:46 38° NNW 09:25:27 10° NNE
CZ-2C R/B 3.5 09:18:56 10° N 09:21:45 38° NW 09:21:45 38° NW
Cosmos 1763 Rocket 3.5 09:21:34 24° SSW 09:24:52 84° ESE 09:30:13 10° NNE
IRIDIUM 106 4.2 09:19:51 10° N 09:25:06 86° W 09:30:19 10° S
SJ 16-02 1.2 09:25:07 10° NNW 09:29:30 70° WSW 09:33:51 10° S
PSLV R/B 3.3 09:28:05 10° N 09:32:17 81° WNW 09:34:43 25° SSW
Cosmos 44 4.4 09:33:21 24° NW 09:33:44 24° NW 09:37:31 10° N
Cosmos 1153 Rocket 4.5 09:28:09 10° N 09:34:34 86° W 09:40:52 10° S
Meteor 1-5 Rocket 4.0 09:29:25 10° NNW 09:34:41 62° W 09:40:01 10° S
CZ-4B R/B 3.0 09:32:02 10° SE 09:34:55 35° ENE 09:37:54 10° N
Meteor 2-6 Rocket 4.4 09:32:38 29° SW 09:35:14 50° WNW 09:40:54 10° N
H-2A R/B 2.1 09:31:08 10° S 09:35:25 56° W 09:39:48 10° NNW
DEBRIS 2.5 09:34:58 48° NW 09:35:40 83° NNE 09:41:03 10° ESE
Cosmos 1238 Rocket 4.5 09:30:41 10° NNW 09:36:31 36° W 09:39:04 26° SW
Cosmos 1605 Rocket 4.2 09:32:27 10° NNW 09:38:37 51° W 09:44:45 10° SSW
Landsat 5 4.0 09:41:45 10° S 09:46:01 42° W 09:50:17 10° NNW
PAYLOAD A 3.9 09:42:26 10° N 09:47:01 54° WNW 09:50:29 17° SW
Lacrosse 5 3.9 09:45:25 12° NW 09:48:00 17° NNW 09:51:18 10° NNE
ERS-2 2.0 09:44:47 10° S 09:48:25 65° WSW 09:52:04 10° NNW
Cosmos 990 Rocket 3.9 09:45:06 10° NNW 09:50:17 68° WSW 09:55:26 10° S
Cosmos 540 Rocket 3.7 09:46:28 10° S 09:51:35 74° ESE 09:56:46 10° NNE
X-37B 1.0 09:51:10 27° NW 09:52:41 60° NNE 09:55:51 10° E
Cosmos 468 Rocket 4.3 09:50:04 21° SW 09:53:24 48° WNW 09:58:30 10° N
ALOS 2.7 09:55:02 10° NNE 09:59:41 66° ESE 10:04:18 10° S
Cosmos 1484 Rocket 3.1 09:55:50 10° NNE 09:59:49 70° E 10:03:49 10° S
COSMO-SKYMED 1 4.5 09:58:33 10° SE 10:02:27 34° ENE 10:06:22 10° N
NOSS 3-4 (A) 4.3 09:56:15 10° NNW 10:03:19 69° NE 10:11:08 10° SE
NOSS 3-4 (C) 4.3 09:56:21 10° NNW 10:03:25 69° NE 10:11:14 10° SE
USA 267 4.5 09:59:17 10° NE 10:04:41 29° NNW 10:09:48 11° WNW
Cosmos 1536 2.8 10:02:56 10° NNW 10:06:58 59° W 10:10:57 10° S
Meteor 1-31 Rocket 2.9 10:07:32 10° NNE 10:11:23 77° E 10:15:13 10° S
Cosmos 1727 Rocket 4.4 10:05:46 10° SW 10:11:42 41° WNW 10:17:38 10° N
Cosmos 1437 Rocket 3.2 10:09:35 10° S 10:13:19 63° E 10:17:06 10° NNE
Meteor 1-11 Rocket 4.0 10:08:54 10° NNW 10:14:21 44° W 10:19:39 10° SSW
Cosmos 2100 Rocket 4.0 10:09:02 10° NNW 10:15:21 67° W 10:21:38 10° S
deb Chang Zheng 4 3.7 10:15:58 10° N 10:20:10 53° WNW 10:24:18 10° SSW
Cosmos 1802 Rocket 4.0 10:14:28 10° N 10:20:42 81° W 10:26:58 10° S
SL-8 R/B 4.1 10:17:55 10° WNW 10:22:26 45° SW 10:26:57 10° SSE
Meteor 1-27 Rocket 4.3 10:17:54 10° SW 10:23:27 41° WNW 10:29:00 10° N
METEOR-M 4.1 10:19:38 10° NNE 10:25:01 86° WNW 10:30:22 10° SSW
Cosmos 1898 Rocket 4.1 10:21:17 10° NW 10:26:01 35° W 10:30:46 10° SSW
Cosmos 1515 4.4 10:22:25 10° S 10:26:08 57° E 10:29:53 10° NNE
Cosmos 2360 Rocket 2.2 10:20:36 10° SSW 10:26:15 70° WNW 10:31:55 10° NNE
ATLAS 2AS CENTAUR R/B 3.0 10:19:50 10° NNW 10:27:19 80° NE 10:34:07 10° SE
ADEOS Rocket 3.4 10:21:23 10° S 10:27:58 46° W 10:33:58 10° NNW
Cosmos 1666 3.9 10:26:15 10° NW 10:29:07 21° W 10:31:58 10° SW
Cosmos 1459 Rocket 4.0 10:24:29 10° NNW 10:30:23 54° W 10:36:14 10° SSW
Cosmos 372 Rocket 4.0 10:27:30 10° NNW 10:32:41 88° ENE 10:37:47 10° SSE
Cosmos 2123 Rocket 4.0 10:28:46 10° S 10:35:00 79° W 10:41:19 10° N
SAR-Lupe-4 4.1 10:33:01 10° SSW 10:36:21 37° W 10:39:43 10° NNW
FENGYUN 3A 3.8 10:31:11 10° N 10:36:28 57° WNW 10:41:44 10° SSW
Cosmos 2242 Rocket 3.6 10:32:22 10° S 10:36:45 90° ENE 10:41:11 10° N
USA 234 3.9 10:33:16 10° S 10:39:05 35° SW 10:44:58 10° WNW
Cosmos 2208 Rocket 4.2 10:34:24 10° SW 10:39:31 51° WNW 10:44:36 10° N
Okean 1-7 3.5 10:36:21 10° S 10:40:34 66° E 10:44:48 10° NNE
Cosmos 2322 Rocket 3.2 10:38:43 10° WSW 10:43:34 29° NW 10:48:30 10° N
Cosmos 2263 Rocket 3.5 10:41:18 10° WNW 10:44:48 17° W 10:48:17 10° SW
Cosmos 1844 3.8 10:42:16 10° NNW 10:47:52 83° ENE 10:53:24 10° SSE
